QPF
0.01 0.01 0.01 0.02 0.01 0.02 0.01 0.01 0.02 0.03 0.03 0.03 0.02 0.01 0.02 0.02 0.03 0.03 0.03 0.03 0.02 0.01 0.01 0.01 0.00 0.00 0.01 0.01 0.03 0.04 0.03 0.03 0.02 0.02 0.02 0.02 0.02 0.02 0.02 0.02 0.01 0.01 0.01
0.02 0.02 0.01 0.01 0.01 0.02 0.01 0.01 0.01 0.02 0.02 0.03 0.02 0.01 0.01 0.02 0.02 0.03 0.02 0.02 0.02 0.02 0.02 0.01 0.01 0.01 0.01 0.01 0.04 0.05 0.03 0.02 0.02 0.02 0.02 0.02 0.02 0.02 0.01 0.01 0.01 0.01 0.01
0.03 0.03 0.03 0.03 0.02 0.02 0.02 0.01 0.01 0.01 0.02 0.02 0.01 0.01 0.01 0.01 0.02 0.03 0.03 0.03 0.02 0.02 0.02 0.02 0.02 0.01 0.01 0.01 0.03 0.05 0.03 0.03 0.03 0.02 0.02 0.02 0.02 0.01 0.01 0.01 0.01 0.00 0.01
0.03 0.03 0.03 0.03 0.03 0.03 0.02 0.03 0.02 0.01 0.02 0.02 0.01 0.01 0.01 0.01 0.01 0.02 0.03 0.04 0.04 0.03 0.03 0.03 0.02 0.02 0.01 0.01 0.03 0.05 0.04 0.04 0.04 0.03 0.02 0.02 0.02 0.02 0.01 0.01 0.01 0.01 0.00
0.02 0.02 0.02 0.02 0.02 0.03 0.04 0.04 0.03 0.02 0.02 0.02 0.02 0.01 0.01 0.01 0.01 0.02 0.02 0.03 0.03 0.04 0.04 0.03 0.03 0.03 0.04 0.04 0.04 0.05 0.04 0.03 0.04 0.03 0.02 0.02 0.02 0.02 0.02 0.01 0.01 0.01 0.00
0.02 0.01 0.01 0.01 0.02 0.03 0.03 0.03 0.03 0.04 0.04 0.03 0.02 0.02 0.02 0.02 0.02 0.03 0.02 0.02 0.02 0.03 0.04 0.04 0.04 0.04 0.04 0.05 0.04 0.06 0.06 0.03 0.03 0.02 0.02 0.02 0.02 0.02 0.02 0.02 0.01 0.01 0.00
0.01 0.01 0.01 0.01 0.02 0.03 0.03 0.04 0.04 0.04 0.05 0.05 0.04 0.04 0.03 0.03 0.03 0.03 0.03 0.03 0.03 0.03 0.03 0.04 0.03 0.04 0.04 0.04 0.04 0.04 0.05 0.04 0.03 0.02 0.02 0.02 0.02 0.02 0.02 0.01 0.01 0.01 0.01
0.01 0.01 0.02 0.02 0.02 0.03 0.03 0.03 0.03 0.04 0.05 0.05 0.05 0.05 0.04 0.03 0.03 0.03 0.03 0.03 0.03 0.03 0.03 0.04 0.04 0.04 0.04 0.04 0.03 0.03 0.02 0.03 0.03 0.03 0.02 0.02 0.03 0.03 0.02 0.02 0.01 0.01 0.01
0.01 0.02 0.02 0.03 0.03 0.03 0.03 0.03 0.03 0.03 0.03 0.03 0.04 0.04 0.04 0.04 0.03 0.03 0.03 0.02 0.02 0.02 0.03 0.03 0.03 0.04 0.05 0.05 0.03 0.02 0.03 0.02 0.02 0.02 0.03 0.02 0.02 0.03 0.03 0.02 0.01 0.01 0.01
0.01 0.02 0.02 0.02 0.03 0.03 0.03 0.03 0.03 0.03 0.02 0.02 0.02 0.03 0.02 0.03 0.03 0.03 0.02 0.02 0.02 0.02 0.02 0.03 0.03 0.04 0.05 0.05 0.04 0.03 0.02 0.02 0.02 0.02 0.02 0.02 0.02 0.02 0.03 0.03 0.02 0.01 0.01
0.01 0.01 0.01 0.02 0.02 0.03 0.03 0.04 0.03 0.03 0.03 0.02 0.02 0.02 0.02 0.02 0.03 0.02 0.02 0.01 0.01 0.02 0.03 0.02 0.03 0.03 0.04 0.05 0.04 0.05 0.05 0.04 0.04 0.03 0.03 0.02 0.02 0.02 0.02 0.02 0.01 0.01 0.01
0.01 0.01 0.01 0.01 0.02 0.02 0.03 0.05 0.06 0.06 0.05 0.05 0.04 0.04 0.03 0.02 0.02 0.02 0.02 0.02 0.01 0.02 0.02 0.02 0.02 0.04 0.04 0.04 0.04 0.05 0.04 0.04 0.03 0.02 0.01 0.02 0.02 0.02 0.02 0.02 0.01 0.01 0.01
0.01 0.01 0.01 0.01 0.01 0.01 0.01 0.03 0.05 0.07 0.08 0.07 0.06 0.05 0.05 0.04 0.03 0.02 0.03 0.03 0.03 0.02 0.02 0.02 0.02 0.03 0.04 0.04 0.04 0.04 0.03 0.03 0.02 0.02 0.01 0.01 0.02 0.02 0.02 0.02 0.02 0.01 0.01
0.01 0.01 0.01 0.01 0.01 0.01 0.00 0.01 0.02 0.03 0.05 0.06 0.05 0.04 0.05 0.04 0.03 0.03 0.03 0.03 0.03 0.03 0.03 0.03 0.02 0.03 0.04 0.04 0.04 0.04 0.03 0.03 0.03 0.02 0.01 0.02 0.03 0.03 0.02 0.02 0.02 0.02 0.01
0.02 0.01 0.01 0.01 0.01 0.01 0.00 0.01 0.01 0.01 0.02 0.03 0.03 0.04 0.05 0.04 0.03 0.03 0.03 0.02 0.03 0.02 0.03 0.02 0.02 0.02 0.03 0.04 0.03 0.02 0.02 0.03 0.03 0.02 0.02 0.01 0.02 0.03 0.03 0.03 0.02 0.02 0.02
0.02 0.02 0.02 0.01 0.01 0.01 0.01 0.01 0.01 0.01 0.01 0.02 0.02 0.03 0.04 0.04 0.04 0.04 0.04 0.04 0.04 0.04 0.03 0.02 0.02 0.01 0.02 0.02 0.03 0.03 0.03 0.03 0.02 0.02 0.02 0.02 0.02 0.03 0.03 0.04 0.03 0.03 0.02
0.01 0.02 0.02 0.02 0.01 0.01 0.01 0.01 0.02 0.02 0.02 0.02 0.03 0.03 0.03 0.04 0.04 0.04 0.06 0.08 0.07 0.05 0.03 0.02 0.02 0.02 0.02 0.02 0.02 0.03 0.03 0.03 0.03 0.03 0.02 0.03 0.03 0.03 0.03 0.03 0.03 0.03 0.03
0.02 0.02 0.02 0.02 0.01 0.01 0.02 0.02 0.02 0.03 0.02 0.03 0.03 0.03 0.03 0.04 0.04 0.05 0.07 0.08 0.07 0.05 0.04 0.03 0.02 0.02 0.02 0.02 0.02 0.03 0.05 0.05 0.04 0.04 0.03 0.03 0.03 0.04 0.04 0.04 0.04 0.04 0.04
0.01 0.01 0.01 0.01 0.01 0.01 0.02 0.03 0.04 0.04 0.03 0.04 0.04 0.04 0.03 0.04 0.05 0.06 0.08 0.07 0.05 0.04 0.04 0.03 0.03 0.02 0.02 0.02 0.02 0.03 0.05 0.05 0.05 0.04 0.04 0.03 0.03 0.04 0.05 0.04 0.04 0.04 0.04
0.01 0.01 0.01 0.01 0.01 0.02 0.02 0.04 0.07 0.06 0.04 0.04 0.04 0.03 0.03 0.03 0.04 0.04 0.05 0.06 0.05 0.04 0.03 0.03 0.04 0.04 0.03 0.02 0.02 0.02 0.03 0.05 0.05 0.04 0.04 0.03 0.03 0.03 0.03 0.03 0.04 0.04 0.05
0.01 0.01 0.02 0.02 0.02 0.03 0.04 0.05 0.07 0.09 0.08 0.04 0.04 0.03 0.03 0.03 0.03 0.03 0.03 0.05 0.06 0.05 0.04 0.04 0.04 0.04 0.04 0.03 0.04 0.03 0.03 0.03 0.04 0.04 0.04 0.04 0.03 0.03 0.03 0.03 0.03 0.03 0.04
0.01 0.02 0.03 0.03 0.04 0.04 0.04 0.04 0.05 0.07 0.10 0.07 0.03 0.03 0.03 0.03 0.03 0.03 0.03 0.03 0.05 0.06 0.06 0.04 0.03 0.02 0.02 0.02 0.03 0.05 0.05 0.03 0.03 0.04 0.03 0.04 0.04 0.03 0.03 0.03 0.03 0.03 0.03
0.01 0.02 0.02 0.03 0.05 0.05 0.04 0.03 0.03 0.04 0.06 0.07 0.03 0.03 0.03 0.03 0.04 0.03 0.03 0.02 0.03 0.05 0.06 0.06 0.05 0.03 0.02 0.03 0.03 0.04 0.05 0.04 0.03 0.03 0.03 0.03 0.04 0.03 0.03 0.03 0.03 0.03 0.03
0.01 0.01 0.02 0.02 0.04 0.04 0.03 0.03 0.02 0.03 0.04 0.06 0.05 0.04 0.04 0.04 0.05 0.05 0.03 0.03 0.03 0.04 0.05 0.06 0.07 0.06 0.04 0.03 0.03 0.04 0.06 0.06 0.04 0.03 0.03 0.04 0.04 0.04 0.03 0.02 0.02 0.02 0.03
0.01 0.01 0.02 0.02 0.03 0.03 0.03 0.03 0.03 0.03 0.03 0.05 0.07 0.05 0.04 0.04 0.05 0.05 0.05 0.04 0.04 0.05 0.06 0.06 0.07 0.08 0.08 0.06 0.06 0.06 0.08 0.09 0.09 0.07 0.06 0.05 0.05 0.05 0.04 0.03 0.02 0.02 0.02
0.01 0.01 0.02 0.03 0.03 0.02 0.02 0.02 0.02 0.02 0.03 0.04 0.06 0.05 0.03 0.03 0.03 0.04 0.05 0.04 0.05 0.06 0.06 0.07 0.08 0.10 0.11 0.10 0.09 0.11 0.11 0.10 0.09 0.09 0.09 0.09 0.07 0.05 0.05 0.05 0.04 0.03 0.02
MSLP
1014.41 1015.09 1015.77 1016.40 1016.96 1017.42 1017.80 1018.11 1018.34 1018.54 1018.69 1018.80 1018.86 1018.88 1018.83 1018.72 1018.57 1018.38 1018.18 1017.99 1017.84 1017.72 1017.64 1017.56 1017.47 1017.34 1017.14 1016.84 1016.47 1016.01 1015.50 1014.96 1014.40 1013.84 1013.28 1012.72 1012.15 1011.56 1010.95 1010.31 1009.66 1009.01 1008.39
1014.54 1015.25 1015.94 1016.59 1017.17 1017.66 1018.06 1018.39 1018.65 1018.86 1019.03 1019.14 1019.22 1019.23 1019.18 1019.07 1018.91 1018.72 1018.51 1018.31 1018.14 1017.99 1017.86 1017.73 1017.58 1017.38 1017.13 1016.79 1016.39 1015.92 1015.41 1014.87 1014.32 1013.76 1013.21 1012.63 1012.03 1011.40 1010.73 1010.02 1009.30 1008.57 1007.88
1014.73 1015.45 1016.16 1016.81 1017.39 1017.89 1018.30 1018.64 1018.91 1019.13 1019.30 1019.43 1019.51 1019.53 1019.48 1019.37 1019.22 1019.02 1018.81 1018.59 1018.39 1018.21 1018.03 1017.85 1017.64 1017.40 1017.09 1016.72 1016.30 1015.82 1015.31 1014.79 1014.26 1013.72 1013.16 1012.58 1011.96 1011.29 1010.56 1009.78 1008.97 1008.17 1007.39
1014.98 1015.71 1016.41 1017.06 1017.63 1018.11 1018.52 1018.85 1019.13 1019.36 1019.54 1019.68 1019.76 1019.78 1019.75 1019.65 1019.49 1019.30 1019.08 1018.85 1018.62 1018.40 1018.18 1017.95 1017.70 1017.40 1017.05 1016.65 1016.21 1015.73 1015.23 1014.72 1014.21 1013.68 1013.14 1012.56 1011.92 1011.21 1010.43 1009.59 1008.72 1007.83 1006.98
1015.28 1016.02 1016.70 1017.33 1017.87 1018.33 1018.72 1019.05 1019.32 1019.55 1019.74 1019.89 1019.99 1020.02 1019.99 1019.90 1019.75 1019.55 1019.33 1019.08 1018.84 1018.59 1018.33 1018.05 1017.75 1017.41 1017.03 1016.60 1016.14 1015.65 1015.15 1014.66 1014.15 1013.64 1013.10 1012.52 1011.87 1011.14 1010.33 1009.45 1008.51 1007.57 1006.65
1015.61 1016.34 1017.01 1017.60 1018.10 1018.54 1018.90 1019.21 1019.49 1019.72 1019.92 1020.09 1020.20 1020.24 1020.22 1020.14 1019.99 1019.79 1019.56 1019.30 1019.04 1018.76 1018.47 1018.16 1017.82 1017.44 1017.02 1016.56 1016.08 1015.58 1015.08 1014.57 1014.07 1013.56 1013.02 1012.44 1011.78 1011.04 1010.21 1009.30 1008.34 1007.36 1006.40
1015.91 1016.63 1017.28 1017.84 1018.31 1018.71 1019.05 1019.35 1019.63 1019.87 1020.09 1020.27 1020.39 1020.46 1020.45 1020.37 1020.22 1020.02 1019.78 1019.51 1019.22 1018.92 1018.60 1018.26 1017.89 1017.49 1017.04 1016.55 1016.04 1015.52 1014.99 1014.47 1013.95 1013.42 1012.87 1012.28 1011.62 1010.88 1010.05 1009.14 1008.17 1007.18 1006.20
1016.15 1016.87 1017.49 1018.02 1018.47 1018.84 1019.18 1019.48 1019.76 1020.02 1020.25 1020.45 1020.59 1020.66 1020.66 1020.58 1020.43 1020.22 1019.97 1019.69 1019.39 1019.07 1018.74 1018.38 1017.99 1017.56 1017.09 1016.58 1016.04 1015.48 1014.92 1014.36 1013.81 1013.25 1012.68 1012.07 1011.41 1010.66 1009.84 1008.95 1007.99 1007.01 1006.04
1016.32 1017.03 1017.64 1018.15 1018.58 1018.95 1019.28 1019.59 1019.89 1020.17 1020.43 1020.64 1020.79 1020.87 1020.87 1020.78 1020.62 1020.40 1020.14 1019.85 1019.54 1019.22 1018.88 1018.51 1018.12 1017.68 1017.19 1016.65 1016.08 1015.49 1014.89 1014.29 1013.69 1013.09 1012.49 1011.86 1011.18 1010.44 1009.63 1008.76 1007.83 1006.87 1005.91
1016.40 1017.12 1017.73 1018.24 1018.67 1019.05 1019.40 1019.74 1020.06 1020.36 1020.63 1020.86 1021.01 1021.09 1021.07 1020.97 1020.79 1020.56 1020.29 1019.99 1019.68 1019.36 1019.02 1018.67 1018.28 1017.84 1017.35 1016.81 1016.22 1015.59 1014.95 1014.30 1013.66 1013.02 1012.37 1011.71 1011.02 1010.28 1009.48 1008.62 1007.72 1006.78 1005.83
1016.44 1017.17 1017.79 1018.32 1018.78 1019.18 1019.56 1019.93 1020.27 1020.60 1020.88 1021.11 1021.25 1021.31 1021.27 1021.15 1020.95 1020.70 1020.41 1020.11 1019.81 1019.50 1019.19 1018.86 1018.49 1018.08 1017.60 1017.06 1016.46 1015.82 1015.15 1014.46 1013.77 1013.08 1012.40 1011.70 1010.99 1010.24 1009.45 1008.60 1007.71 1006.79 1005.85
1016.47 1017.22 1017.86 1018.42 1018.91 1019.36 1019.78 1020.18 1020.55 1020.89 1021.17 1021.38 1021.51 1021.54 1021.47 1021.31 1021.09 1020.82 1020.53 1020.24 1019.95 1019.68 1019.40 1019.10 1018.78 1018.39 1017.95 1017.43 1016.84 1016.19 1015.51 1014.79 1014.07 1013.35 1012.63 1011.90 1011.16 1010.40 1009.60 1008.76 1007.87 1006.95 1006.01
1016.51 1017.28 1017.95 1018.56 1019.10 1019.59 1020.05 1020.47 1020.86 1021.20 1021.47 1021.66 1021.76 1021.75 1021.65 1021.46 1021.22 1020.95 1020.66 1020.38 1020.13 1019.89 1019.65 1019.41 1019.13 1018.80 1018.39 1017.91 1017.35 1016.72 1016.03 1015.31 1014.57 1013.82 1013.07 1012.32 1011.56 1010.78 1009.97 1009.12 1008.23 1007.31 1006.36
1016.55 1017.35 1018.06 1018.71 1019.30 1019.83 1020.33 1020.78 1021.17 1021.50 1021.76 1021.91 1021.97 1021.93 1021.80 1021.59 1021.34 1021.07 1020.81 1020.56 1020.34 1020.15 1019.97 1019.78 1019.56 1019.28 1018.93 1018.49 1017.97 1017.36 1016.70 1015.98 1015.24 1014.48 1013.72 1012.95 1012.17 1011.37 1010.55 1009.70 1008.82 1007.89 1006.94
1016.58 1017.39 1018.15 1018.83 1019.47 1020.04 1020.56 1021.02 1021.42 1021.74 1021.96 1022.09 1022.11 1022.05 1021.90 1021.69 1021.46 1021.21 1020.98 1020.78 1020.61 1020.47 1020.35 1020.22 1020.05 1019.82 1019.52 1019.13 1018.65 1018.08 1017.45 1016.75 1016.03 1015.27 1014.51 1013.74 1012.95 1012.15 1011.33 1010.48 1009.60 1008.69 1007.75
1016.54 1017.37 1018.15 1018.88 1019.54 1020.15 1020.69 1021.15 1021.54 1021.84 1022.05 1022.15 1022.16 1022.09 1021.95 1021.76 1021.56 1021.36 1021.18 1021.04 1020.93 1020.85 1020.78 1020.69 1020.57 1020.39 1020.13 1019.78 1019.33 1018.80 1018.20 1017.55 1016.85 1016.12 1015.37 1014.61 1013.84 1013.05 1012.24 1011.41 1010.56 1009.68 1008.78
1016.40 1017.24 1018.05 1018.80 1019.49 1020.11 1020.66 1021.13 1021.50 1021.79 1021.99 1022.09 1022.10 1022.05 1021.94 1021.80 1021.66 1021.52 1021.41 1021.34 1021.29 1021.26 1021.23 1021.18 1021.09 1020.93 1020.70 1020.37 1019.96 1019.47 1018.90 1018.28 1017.62 1016.93 1016.22 1015.49 1014.75 1014.00 1013.23 1012.44 1011.63 1010.80 1009.97
1016.14 1016.99 1017.81 1018.57 1019.28 1019.91 1020.47 1020.93 1021.31 1021.59 1021.79 1021.90 1021.94 1021.93 1021.88 1021.82 1021.75 1021.70 1021.66 1021.66 1021.66 1021.67 1021.67 1021.64 1021.56 1021.41 1021.18 1020.87 1020.48 1020.01 1019.49 1018.91 1018.30 1017.66 1017.00 1016.33 1015.64 1014.94 1014.22 1013.50 1012.75 1012.01 1011.26
1015.78 1016.63 1017.46 1018.23 1018.95 1019.58 1020.14 1020.61 1020.99 1021.28 1021.49 1021.64 1021.73 1021.78 1021.80 1021.82 1021.84 1021.87 1021.92 1021.97 1022.02 1022.06 1022.07 1022.04 1021.95 1021.79 1021.55 1021.24 1020.86 1020.41 1019.92 1019.39 1018.84 1018.26 1017.67 1017.07 1016.46 1015.83 1015.19 1014.55 1013.90 1013.24 1012.60
1015.37 1016.22 1017.05 1017.82 1018.54 1019.18 1019.74 1020.21 1020.59 1020.90 1021.14 1021.33 1021.48 1021.60 1021.71 1021.81 1021.92 1022.03 1022.14 1022.25 1022.34 1022.39 1022.39 1022.34 1022.22 1022.04 1021.78 1021.46 1021.08 1020.66 1020.21 1019.73 1019.24 1018.74 1018.23 1017.72 1017.19 1016.66 1016.12 1015.57 1015.01 1014.47 1013.94
1014.97 1015.81 1016.63 1017.41 1018.12 1018.76 1019.32 1019.79 1020.19 1020.52 1020.79 1021.03 1021.23 1021.42 1021.61 1021.79 1021.98 1022.15 1022.32 1022.46 1022.56 1022.61 1022.60 1022.52 1022.37 1022.15 1021.87 1021.54 1021.17 1020.77 1020.36 1019.94 1019.52 1019.11 1018.69 1018.27 1017.85 1017.42 1016.98 1016.54 1016.09 1015.65 1015.23
1014.63 1015.45 1016.26 1017.02 1017.73 1018.36 1018.92 1019.40 1019.81 1020.15 1020.46 1020.73 1020.99 1021.24 1021.49 1021.74 1021.98 1022.20 1022.40 1022.56 1022.66 1022.70 1022.67 1022.56 1022.38 1022.14 1021.84 1021.50 1021.15 1020.78 1020.42 1020.06 1019.73 1019.40 1019.08 1018.77 1018.45 1018.13 1017.80 1017.46 1017.11 1016.78 1016.45
1014.35 1015.15 1015.94 1016.69 1017.38 1018.00 1018.55 1019.03 1019.44 1019.81 1020.14 1020.44 1020.73 1021.03 1021.32 1021.61 1021.88 1022.14 1022.35 1022.52 1022.62 1022.65 1022.59 1022.47 1022.27 1022.02 1021.72 1021.39 1021.06 1020.74 1020.43 1020.15 1019.89 1019.65 1019.43 1019.22 1019.00 1018.78 1018.56 1018.32 1018.08 1017.83 1017.60
1014.11 1014.88 1015.64 1016.36 1017.03 1017.64 1018.18 1018.65 1019.06 1019.44 1019.78 1020.10 1020.42 1020.74 1021.05 1021.36 1021.66 1021.93 1022.15 1022.32 1022.42 1022.45 1022.39 1022.26 1022.07 1021.82 1021.55 1021.26 1020.97 1020.69 1020.44 1020.23 1020.05 1019.89 1019.76 1019.63 1019.52 1019.39 1019.26 1019.12 1018.97 1018.82 1018.67
1013.86 1014.59 1015.31 1016.00 1016.64 1017.22 1017.74 1018.20 1018.62 1018.99 1019.34 1019.67 1020.00 1020.32 1020.65 1020.98 1021.28 1021.56 1021.80 1021.97 1022.08 1022.12 1022.08 1021.98 1021.81 1021.60 1021.37 1021.12 1020.89 1020.67 1020.49 1020.34 1020.22 1020.14 1020.08 1020.03 1019.99 1019.95 1019.90 1019.85 1019.79 1019.72 1019.64
1013.54 1014.21 1014.88 1015.53 1016.14 1016.69 1017.19 1017.64 1018.05 1018.42 1018.77 1019.10 1019.43 1019.77 1020.10 1020.43 1020.75 1021.03 1021.29 1021.48 1021.62 1021.69 1021.70 1021.64 1021.53 1021.38 1021.21 1021.03 1020.86 1020.70 1020.58 1020.48 1020.42 1020.39 1020.39 1020.40 1020.42 1020.44 1020.47 1020.49 1020.50 1020.51 1020.52
Thickness
5686 5685 5683 5680 5679 5677 5674 5673 5672 5670 5668 5666 5665 5663 5661 5660 5658 5656 5655 5653 5651 5650 5648 5647 5647 5647 5646 5645 5645 5643 5642 5640 5636 5635 5636 5637 5637 5637 5637 5636 5636 5636 5635
5681 5679 5677 5675 5673 5670 5669 5667 5666 5665 5663 5661 5659 5658 5656 5654 5652 5651 5649 5648 5647 5645 5644 5643 5643 5643 5642 5641 5641 5640 5639 5637 5635 5632 5631 5631 5632 5632 5631 5630 5630 5630 5629
5675 5672 5670 5668 5666 5664 5663 5662 5660 5659 5657 5655 5654 5651 5650 5649 5647 5646 5644 5643 5642 5642 5641 5640 5639 5638 5637 5637 5637 5636 5635 5635 5632 5629 5627 5626 5626 5626 5624 5623 5623 5623 5623
5668 5666 5663 5661 5660 5658 5657 5655 5654 5653 5651 5649 5647 5646 5644 5643 5642 5640 5639 5638 5637 5636 5637 5637 5636 5636 5635 5635 5634 5633 5631 5629 5627 5624 5622 5621 5620 5620 5618 5616 5615 5616 5616
5660 5658 5656 5655 5654 5652 5650 5649 5648 5646 5645 5643 5641 5639 5638 5637 5636 5634 5632 5631 5629 5630 5630 5631 5633 5633 5634 5633 5632 5630 5628 5624 5622 5619 5617 5615 5614 5613 5612 5611 5610 5608 5608
5653 5651 5650 5648 5646 5645 5643 5642 5640 5639 5638 5635 5633 5631 5630 5630 5630 5629 5627 5624 5623 5623 5623 5625 5627 5628 5629 5629 5629 5628 5626 5623 5619 5616 5614 5612 5611 5610 5608 5606 5603 5601 5601
5646 5644 5642 5640 5638 5637 5636 5634 5632 5631 5629 5627 5625 5624 5623 5623 5623 5621 5620 5618 5617 5617 5617 5618 5620 5622 5622 5622 5623 5623 5621 5621 5620 5617 5612 5611 5608 5607 5604 5601 5598 5597 5597
5639 5637 5635 5633 5631 5629 5627 5625 5624 5622 5620 5618 5617 5617 5615 5615 5615 5614 5613 5612 5611 5611 5611 5612 5612 5614 5615 5614 5614 5614 5614 5615 5614 5613 5611 5609 5608 5606 5603 5601 5597 5593 5592
5632 5630 5628 5626 5623 5621 5619 5617 5616 5614 5612 5611 5610 5609 5607 5607 5608 5607 5605 5604 5603 5604 5604 5605 5606 5607 5608 5608 5607 5606 5606 5607 5607 5607 5606 5604 5602 5601 5598 5594 5590 5586 5585
5626 5625 5623 5620 5617 5615 5613 5610 5608 5606 5604 5603 5601 5600 5600 5599 5600 5599 5598 5597 5595 5596 5597 5598 5600 5601 5602 5601 5600 5599 5597 5598 5598 5598 5597 5596 5594 5593 5592 5590 5587 5583 5580
5620 5617 5615 5613 5611 5609 5606 5603 5601 5599 5597 5594 5593 5592 5591 5591 5591 5591 5591 5590 5589 5588 5589 5590 5592 5594 5595 5594 5593 5592 5592 5591 5590 5589 5588 5587 5586 5585 5584 5583 5582 5579 5576
5611 5609 5607 5606 5604 5602 5598 5595 5593 5591 5588 5585 5583 5582 5582 5582 5583 5583 5583 5583 5582 5581 5582 5583 5585 5587 5588 5587 5586 5585 5584 5583 5581 5581 5579 5577 5577 5576 5576 5575 5575 5574 5572
5601 5599 5598 5597 5594 5593 5590 5587 5585 5582 5579 5577 5575 5573 5573 5573 5573 5574 5575 5575 5575 5574 5575 5576 5577 5578 5578 5577 5577 5577 5576 5574 5573 5572 5571 5569 5569 5569 5568 5567 5566 5566 5564
5590 5589 5588 5586 5584 5583 5582 5579 5577 5574 5572 5570 5568 5566 5565 5564 5564 5565 5565 5565 5565 5565 5565 5567 5568 5568 5568 5567 5567 5566 5566 5565 5565 5564 5563 5562 5561 5560 5558 5558 5557 5556 5554
5579 5578 5577 5576 5575 5573 5572 5570 5569 5568 5566 5564 5562 5560 5557 5556 5558 5559 5558 5557 5557 5557 5557 5557 5557 5557 5556 5556 5556 5555 5555 5555 5555 5554 5554 5552 5552 5551 5550 5549 5549 5547 5545
5568 5568 5567 5566 5565 5564 5562 5561 5560 5560 5559 5558 5557 5555 5553 5552 5552 5551 5551 5551 5550 5549 5548 5547 5547 5547 5547 5547 5546 5545 5545 5545 5546 5545 5545 5544 5543 5542 5541 5540 5539 5538 5537
5558 5557 5556 5556 5555 5554 5553 5552 5551 5550 5550 5549 5548 5546 5545 5544 5544 5543 5543 5542 5541 5540 5539 5538 5538 5538 5538 5537 5537 5537 5537 5537 5537 5537 5536 5535 5534 5534 5532 5531 5530 5529 5527
5548 5548 5547 5546 5545 5545 5544 5543 5543 5541 5540 5539 5538 5537 5536 5536 5535 5534 5534 5532 5529 5529 5529 5529 5529 5529 5529 5529 5529 5528 5528 5528 5528 5528 5527 5527 5526 5524 5523 5522 5520 5520 5519
5537 5537 5537 5536 5535 5535 5535 5534 5533 5533 5531 5529 5528 5527 5527 5527 5525 5524 5524 5523 5522 5521 5520 5520 5520 5520 5520 5520 5520 5521 5520 5520 5519 5519 5519 5518 5517 5515 5514 5513 5512 5511 5510
5527 5528 5528 5526 5525 5524 5524 5523 5523 5522 5521 5520 5519 5518 5517 5516 5514 5514 5514 5513 5513 5513 5512 5512 5512 5512 5511 5511 5511 5512 5512 5512 5511 5510 5510 5509 5508 5507 5506 5504 5503 5502 5501
5517 5517 5517 5516 5514 5514 5513 5512 5512 5512 5512 5511 5510 5510 5509 5507 5506 5505 5504 5504 5504 5504 5504 5503 5503 5503 5503 5502 5503 5503 5504 5503 5503 5502 5501 5501 5499 5498 5497 5496 5495 5494 5493
5507 5506 5505 5504 5504 5504 5503 5502 5501 5501 5501 5501 5500 5500 5499 5497 5496 5496 5495 5495 5495 5496 5496 5495 5495 5495 5495 5495 5495 5495 5495 5495 5495 5494 5493 5492 5491 5490 5489 5487 5486 5485 5483
5496 5495 5494 5494 5494 5494 5493 5492 5491 5491 5490 5490 5490 5490 5489 5488 5487 5487 5487 5486 5486 5486 5486 5486 5486 5486 5487 5487 5487 5487 5487 5487 5487 5486 5485 5484 5483 5482 5481 5479 5478 5476 5474
5487 5486 5484 5483 5483 5483 5482 5482 5482 5482 5482 5481 5481 5480 5480 5479 5479 5478 5478 5478 5477 5477 5477 5477 5478 5478 5478 5479 5479 5479 5479 5479 5478 5478 5477 5476 5475 5474 5472 5471 5470 5468 5467
5477 5476 5475 5474 5473 5473 5473 5473 5473 5474 5474 5474 5473 5472 5471 5470 5470 5469 5469 5469 5468 5468 5468 5468 5468 5468 5469 5469 5470 5470 5470 5470 5470 5469 5469 5468 5467 5465 5464 5463 5462 5460 5458
5467 5466 5465 5464 5464 5464 5463 5464 5464 5464 5465 5465 5465 5464 5463 5463 5462 5461 5461 5460 5459 5460 5460 5460 5460 5460 5459 5460 5460 5461 5461 5461 5461 5461 5460 5459 5458 5457 5456 5455 5454 5452 5451